Sarasota, FL

11:19 AM EST on December 15, 2017 (GMT -0500)
Sarasota-bradenton

Weather History for KSRQ - November, 2013

Change the Weather History Date:

Saturday, November 23, 2013

  Actual Average Record
Temperature  
Mean Temperature 75 °F 68 °F  
Max Temperature 85 °F 77 °F 90 °F (1963)
Min Temperature 65 °F 58 °F 36 °F (1981)
Degree Days  
Heating Degree Days 0 2  
Month to date heating degree days 2 14  
Since 1 July heating degree days 2 17  
Cooling Degree Days 10 4  
Month to date cooling degree days 221 129  
Year to date cooling degree days 3609 3273  
Growing Degree Days 24 (Base 50)    
Moisture  
Dew Point 64 °F    
Average Humidity 77    
Maximum Humidity 93    
Minimum Humidity 51    
Precipitation  
Precipitation 0.00 in 0.06 in 1.78 in (1988)
Month to date precipitation 0.99 1.46  
Year to date precipitation 52.10 50.01  
Sea Level Pressure  
Sea Level Pressure 30.06 in    
Wind  
Wind Speed 7 mph (NNE)    
Max Wind Speed 14 mph    
Max Gust Speed 21 mph    
Visibility 10 miles    
Events      
T = Trace of Precipitation, MM = Missing Value Source: NWS Daily Summary

Daily Weather History Graph

Daily Weather History Graph

Search for Another Location

Airport or City:

Trip Planner

Search our weather history database for the weather conditions in past years. The results will help you decide how hot, cold, wet, or windy it might be!

Date:

Astronomy

Nov. 23, 2013 Rise Set
Actual Time 6:57 AM EST 5:36 PM EST
Civil Twilight 6:32 AM EST 6:01 PM EST
Nautical Twilight 6:03 AM EST 6:29 PM EST
Astronomical Twilight 5:35 AM EST 6:57 PM EST
Moon 10:51 PM EST (11/23) 11:23 AM EST (11/23)
Length of Visible Light 11h 29m
Length of Day
10h 39m
Waning Gibbous, 70% of the Moon is Illuminated
Nov 23
Waning Gibbous
Nov 25
Last Quarter
Dec 2
New
Dec 9
First Quarter
Dec 17
Full

Hourly Weather History & Observations

Time (EST) Temp. Heat Index Dew Point Humidity Pressure Visibility Wind Dir Wind Speed Gust Speed Precip Events Conditions
12:53 AM 68.0 °F - 63.0 °F 84% 30.10 in 10.0 mi ENE 4.6 mph - N/A   Clear
1:53 AM 66.9 °F - 63.0 °F 87% 30.09 in 10.0 mi ENE 4.6 mph - N/A   Clear
2:53 AM 66.0 °F - 63.0 °F 90% 30.07 in 10.0 mi ENE 4.6 mph - N/A   Clear
3:53 AM 66.0 °F - 63.0 °F 90% 30.06 in 10.0 mi NE 4.6 mph - N/A   Clear
4:53 AM 66.0 °F - 63.0 °F 90% 30.06 in 10.0 mi NE 5.8 mph - N/A   Clear
5:53 AM 64.9 °F - 63.0 °F 93% 30.07 in 10.0 mi NNE 5.8 mph - N/A   Clear
6:15 AM 64.4 °F - 62.6 °F 94% 30.08 in 10.0 mi NNE 5.8 mph - N/A   Partly Cloudy
6:53 AM 66.0 °F - 63.0 °F 90% 30.09 in 10.0 mi NE 5.8 mph - N/A   Clear
7:53 AM 66.9 °F - 64.0 °F 90% 30.11 in 10.0 mi NNE 6.9 mph - N/A   Clear
8:53 AM 71.1 °F - 66.0 °F 84% 30.12 in 10.0 mi NE 6.9 mph - N/A   Clear
9:53 AM 75.9 °F - 64.9 °F 69% 30.11 in 10.0 mi East 9.2 mph - N/A   Clear
10:53 AM 79.0 °F - 64.9 °F 62% 30.09 in 10.0 mi East 6.9 mph - N/A   Clear
11:53 AM 81.0 °F 82.7 °F 64.9 °F 58% 30.06 in 10.0 mi ESE 5.8 mph - N/A   Clear
12:53 PM 84.0 °F 85.8 °F 64.9 °F 53% 30.04 in 10.0 mi Variable 3.5 mph - N/A   Scattered Clouds
1:53 PM 79.0 °F - 66.0 °F 64% 30.01 in 10.0 mi West 12.7 mph - N/A   Scattered Clouds
2:53 PM 80.1 °F 82.1 °F 66.0 °F 62% 30.01 in 10.0 mi West 12.7 mph - N/A   Clear
3:53 PM 81.0 °F 82.5 °F 64.0 °F 56% 30.00 in 10.0 mi NW 10.4 mph - N/A   Clear
4:53 PM 78.1 °F - 64.9 °F 64% 30.01 in 10.0 mi NNW 10.4 mph - N/A   Clear
5:53 PM 73.9 °F - 66.0 °F 76% 30.02 in 10.0 mi NNW 9.2 mph - N/A   Clear
6:53 PM 73.0 °F - 66.0 °F 79% 30.03 in 10.0 mi North 5.8 mph - N/A   Clear
7:53 PM 73.0 °F - 64.0 °F 73% 30.04 in 10.0 mi North 6.9 mph - N/A   Clear
8:53 PM 72.0 °F - 64.0 °F 76% 30.05 in 10.0 mi North 9.2 mph - N/A   Clear
9:53 PM 71.1 °F - 64.0 °F 78% 30.05 in 10.0 mi NNE 6.9 mph - N/A   Clear
10:53 PM 70.0 °F - 64.0 °F 81% 30.06 in 10.0 mi North 8.1 mph - N/A   Clear
11:53 PM 70.0 °F - 64.0 °F 81% 30.05 in 10.0 mi NNE 5.8 mph - N/A   Overcast